sat.trackr.live / text

‹ back to catalog

GLOBALSTAR M096

NORAD 39075 · 2013-005D

PAYLOAD ACTIVE UNKNOWN

§ Identity

Operator
Country
GLOB
Launch date
2013-02-06
Launch site
TYMSC
Launch vehicle
Mass (kg)
RCS (m²)
4.58

Purposes: comms

External: N2YO · Heavens-Above · Gunter

§ Orbital elements

Epoch: 2026-09-20T00:17:07.645920Z

Period
114.08 min
Inclination
52.0063°
Eccentricity
0.0000438
Mean motion
12.62264556 rev/d
Perigee alt
1,413.3 km
Apogee alt
1,414.0 km
Semi-major
7,791.7 km
B*
1.0167e-4
RAAN
270.9627°
Arg perigee
109.2303°
Mean anomaly
250.8611°
Rev number
62,936

§ Raw data

GLOBALSTAR M0961 39075U 13005D   26263.01189405 -.00000086  00000+0  10167-3 0  99922 39075  52.0063 270.9627 0000438 109.2303 250.8611 12.62264556629366

JSON: /api/v1/satellites/39075 · /tle

For live sub-satellite position, see the globe view (requires WebGL).

§ Visibility from observer

Set your observer location to see the next 7 days of passes ≥ 10°. The values pass through the URL so the page stays shareable.

No JS? Fill the form by hand. The geolocation button needs JavaScript.